{"data":{"norad_id":55147,"epoch":"2026-05-25T01:41:25.564128Z","epoch_age_seconds":68649,"freshness":"FRESH","line1":"1 55147U 23004H   26145.07043477 -.00000016  00000+0 -73277-4 0  9999","line2":"2 55147  87.9160 340.0732 0001489  95.1675 264.9627 13.18685163166651","mean_motion":13.18685163,"eccentricity":0.0001489,"inclination_deg":87.916,"raan_deg":340.0732,"arg_perigee_deg":95.1675,"mean_anomaly_deg":264.9627,"bstar":-7.3277e-5,"rev_number":16665,"period_min":109.1996816529,"perigee_km":1188.6194713781,"apogee_km":1190.8731870335,"semimajor_km":7567.8833292058,"source":"CELESTRAK","updated_at":"2026-05-25T13:38:22.640561Z"}}